Weather in Dyachevo

Russia / Ivanovo Oblast     57°24′36″N   42°28′36″E
temp.,
°C
wind,
m/s
gust,
m/s
humid.,
%
clouds,
%
prec.,
mm/h
press.,
hPa
HPBL,
m
3 march, wed
wed300:00−6nw5128996 0.0 1004645
03:00−7nw5129197 0.0 1007621
06:00−8nw41292100 0.0 1008544
09:00−7nw51191100 0.1 1009576
12:00−4wnw5988100 0.1 1009694
15:00−3w588891 0.1 1007775
18:00−2w41196100 0.3 1005699
21:00−2w51292100 0.6 1003784
4 march, thu
thu400:00−3wsw41294100 0.1 1000690
03:00−2wsw51394100 0.7 998841
06:00−1w51393100 0.6 9941155
09:00−2wnw6128582 0.7 9931067
12:00−3wnw6108657 0.1 994936
15:00−1nw478378 0.3 9971040
18:00−6nw239177 0.1 99836
21:00−8nnw229688 0.3 100042
5 march, fri
fri500:00−12nnw239688 0.0 100130
03:00−14nnw239644 0.0 100328
06:00−16nnw23960 0.0 100429
09:00−13nnw23920 0.0 1006127
12:00−7wnw23830 0.0 1006516
15:00−5wsw348140 0.0 1007812
18:00−10wsw239266 0.0 100828
21:00−11wsw229754 0.0 100921
6 march, sat
sat600:00−10wsw129797 0.2 101021
03:00−13wnw239795 0.3 101156
06:00−16nw379866 0.0 1011154
09:00−14nnw379372 0.0 1012343
12:00−11nw358480 0.0 1013813
15:00−11wnw368490 0.1 1012963
18:00−14w2394100 0.1 101260
21:00−16wsw239665 0.1 101232
7 march, sun
sun700:00−16ssw359740 0.0 101088
03:00−14s4109648 0.0 1006236
06:00−11s51490100 0.0 1002551
09:00−9s61393100 0.7 997858
12:00−5s71292100 0.9 9921043
15:00−3ssw61294100 3.2 989940
18:00−7wnw3993100 1.8 989490
21:00−11wsw239183 1.8 99035